GW7002 Weather Reports


Display with metric or nautical units.
time (UTC)temp
F
wind
direction
speed
MPH
gust
MPH
rain 1hr
in
rain 24hr
in
rain mn
in
humidity
%
barometer
mb
20260502152009 59 130 1.0 3.0 0.00 0.00 0.00 37 1021.3
20260502151520 58 143 2.0 3.0 0.00 0.00 0.00 37 1021.3
20260502151006 57 138 0.0 3.0 0.00 0.00 0.00 41 1021.3
20260502150507 57 130 1.0 3.0 0.00 0.00 0.00 42 1021.3
20260502130509 50 135 1.0 1.0 0.00 0.00 0.00 40 1021.2
20260502123513 49 135 0.0 2.0 0.00 0.00 0.00 39 1020.9
20260502123022 49 133 0.0 2.0 0.00 0.00 0.00 38 1020.9
20260502122508 50 144 0.0 2.0 0.00 0.00 0.00 38 1020.9
20260502122012 50 144 0.0 3.0 0.00 0.00 0.00 38 1020.9
20260502121526 50 180 0.0 3.0 0.00 0.00 0.00 38 1020.9
20260502121008 49 182 1.0 3.0 0.00 0.00 0.00 39 1020.8
20260502120509 49 188 0.0 3.0 0.00 0.00 0.00 40 1020.8
20260502115508 49 187 0.0 3.0 0.00 0.00 0.00 40 1020.9
20260502115008 48 166 0.0 2.0 0.00 0.00 0.00 41 1020.9
20260502114526 48 149 0.0 1.0 0.00 0.00 0.00 41 1020.9
20260502114010 48 196 0.0 2.0 0.00 0.00 0.00 43 1020.9
20260502113508 49 196 0.0 2.0 0.00 0.00 0.00 42 1020.9
20260502113027 49 190 0.0 2.0 0.00 0.00 0.00 43 1020.9
20260502112506 49 190 0.0 2.0 0.00 0.00 0.00 43 1021.0
20260502112009 50 184 0.0 2.0 0.00 0.00 0.00 42 1021.0
20260502111505 50 188 0.0 3.0 0.00 0.00 0.00 42 1021.0
20260502111004 50 195 1.0 4.0 0.00 0.00 0.00 42 1021.0
20260502110510 50 169 0.0 4.0 0.00 0.00 0.00 42 1020.9
20260502110021 50 186 1.0 4.0 0.00 0.00 0.00 42 1020.9
20260502105505 51 187 1.0 5.0 0.00 0.00 0.00 41 1020.9
20260502105007 51 185 1.0 5.0 0.00 0.00 0.00 40 1020.9
20260502104518 51 185 1.0 3.0 0.00 0.00 0.00 40 1020.9
20260502104004 51 209 1.0 3.0 0.00 0.00 0.00 40 1021.0
20260502103507 50 196 1.0 3.0 0.00 0.00 0.00 40 1021.0
20260502103006 50 190 0.0 2.0 0.00 0.00 0.00 40 1021.0
20260502102506 51 173 0.0 2.0 0.00 0.00 0.00 39 1020.9
20260502102006 51 178 0.0 2.0 0.00 0.00 0.00 39 1020.8
20260502101514 50 142 0.0 2.0 0.00 0.00 0.00 38 1020.8
20260502101007 50 187 0.0 2.0 0.00 0.00 0.00 38 1020.7
20260502100503 50 186 0.0 2.0 0.00 0.00 0.00 39 1020.7
20260502091508 50 233 0.0 1.0 0.00 0.00 0.00 39 1020.4
20260502091006 50 234 0.0 2.0 0.00 0.00 0.00 40 1020.5
20260502090505 50 234 0.0 2.0 0.00 0.00 0.00 40 1020.5
20260502071521 51 190 0.0 2.0 0.00 0.00 0.00 40 1020.8
20260502071014 50 190 0.0 2.0 0.00 0.00 0.00 42 1020.8
20260502070504 51 190 0.0 2.0 0.00 0.00 0.00 38 1020.8
20260502070008 52 191 0.0 2.0 0.00 0.00 0.00 39 1020.9
20260502065505 51 191 1.0 2.0 0.00 0.00 0.00 37 1020.9
20260502065007 51 192 0.0 2.0 0.00 0.00 0.00 36 1020.8
20260502064531 51 211 0.0 2.0 0.00 0.00 0.00 36 1020.9
20260502064009 50 211 0.0 2.0 0.00 0.00 0.00 37 1020.8
20260502063507 50 210 0.0 2.0 0.00 0.00 0.00 39 1020.9
20260502063009 50 210 0.0 2.0 0.00 0.00 0.00 40 1020.9
20260502062508 50 210 0.0 2.0 0.00 0.00 0.00 39 1020.9
20260502062013 50 210 0.0 0.0 0.00 0.00 0.00 41 1020.8
20260502061525 51 210 0.0 2.0 0.00 0.00 0.00 38 1020.8
20260502061007 51 210 0.0 2.0 0.00 0.00 0.00 38 1020.8
20260502060509 50 211 0.0 2.0 0.00 0.00 0.00 39 1020.8
20260502060025 51 211 0.0 2.0 0.00 0.00 0.00 37 1020.8
20260502055506 52 211 0.0 2.0 0.00 0.00 0.00 35 1020.7
20260502055006 52 206 0.0 2.0 0.00 0.00 0.00 35 1020.7
20260502054513 52 215 0.0 2.0 0.00 0.00 0.00 35 1020.6
20260502054007 52 215 0.0 2.0 0.00 0.00 0.00 35 1020.6
20260502053506 52 223 0.0 2.0 0.00 0.00 0.00 35 1020.7
20260502053015 52 257 0.0 2.0 0.00 0.00 0.00 36 1020.6
20260502052505 52 296 0.0 2.0 0.00 0.00 0.00 36 1020.6
20260502052007 52 288 0.0 2.0 0.00 0.00 0.00 36 1020.6
20260502051519 52 215 0.0 2.0 0.00 0.00 0.00 36 1020.6
20260502051007 52 209 0.0 2.0 0.00 0.00 0.00 36 1020.6
20260502050514 51 217 0.0 2.0 0.00 0.00 0.00 36 1020.6
20260502050012 51 215 0.0 2.0 0.00 0.00 0.00 36 1020.7
20260502045507 51 220 0.0 2.0 0.00 0.00 0.00 37 1020.7
20260502045010 51 216 0.0 2.0 0.00 0.00 0.00 37 1020.7
20260502044511 51 216 0.0 2.0 0.00 0.00 0.00 37 1020.7
20260502044007 51 216 0.0 2.0 0.00 0.00 0.00 38 1020.7
20260502043508 51 216 0.0 2.0 0.00 0.00 0.00 38 1020.7
20260502043015 51 216 0.0 0.0 0.00 0.00 0.00 38 1020.7
20260502042507 51 216 0.0 1.0 0.00 0.00 0.00 37 1020.6
20260502042007 51 216 0.0 1.0 0.00 0.00 0.00 37 1020.6
20260502041505 51 216 0.0 0.0 0.00 0.00 0.00 37 1020.5
20260502041008 52 216 0.0 2.0 0.00 0.00 0.00 36 1020.5
20260502040507 52 216 0.0 2.0 0.00 0.00 0.00 36 1020.4
20260502040010 52 216 0.0 2.0 0.00 0.00 0.00 35 1020.4
20260502035504 52 216 0.0 2.0 0.00 0.00 0.00 36 1020.4
20260502035004 53 216 0.0 2.0 0.00 0.00 0.00 35 1020.3
20260502034508 53 232 1.0 2.0 0.00 0.00 0.00 34 1020.3
20260502034005 53 259 0.0 2.0 0.00 0.00 0.00 34 1020.2
20260502033503 53 259 0.0 2.0 0.00 0.00 0.00 34 1020.2
20260502033014 53 292 0.0 2.0 0.00 0.00 0.00 34 1020.1
20260502032506 53 292 0.0 2.0 0.00 0.00 0.00 35 1020.1
20260502032005 53 292 0.0 2.0 0.00 0.00 0.00 34 1019.9
20260502031513 53 292 0.0 2.0 0.00 0.00 0.00 35 1019.9
20260502031006 54 293 0.0 2.0 0.00 0.00 0.00 35 1019.8
20260502030503 54 293 0.0 2.0 0.00 0.00 0.00 36 1019.7
20260502030010 54 293 0.0 2.0 0.00 0.00 0.00 35 1019.6
20260502025505 54 273 0.0 2.0 0.00 0.00 0.00 35 1019.6
20260502025004 54 275 0.0 2.0 0.00 0.00 0.00 35 1019.6
20260502024510 54 284 0.0 2.0 0.00 0.00 0.00 35 1019.5
20260502024003 54 284 0.0 2.0 0.00 0.00 0.00 35 1019.5
20260502023503 55 284 0.0 2.0 0.00 0.00 0.00 34 1019.5
20260502023005 56 284 0.0 2.0 0.00 0.00 0.00 33 1019.5
20260502022506 56 281 0.0 2.0 0.00 0.00 0.00 31 1019.4
20260502022007 57 284 0.0 2.0 0.00 0.00 0.00 29 1019.4
20260502021512 58 301 0.0 3.0 0.00 0.00 0.00 27 1019.3
20260502021004 58 313 0.0 3.0 0.00 0.00 0.00 26 1019.3
20260502020508 58 306 1.0 3.0 0.00 0.00 0.00 26 1019.3
20260502020010 59 280 1.0 3.0 0.00 0.00 0.00 25 1019.2
20260502015507 59 306 0.0 8.0 0.00 0.00 0.00 26 1019.2
20260502015004 59 302 1.0 8.0 0.00 0.00 0.00 26 1019.2
20260502014529 59 324 1.0 6.0 0.00 0.00 0.00 26 1019.1
20260502014008 60 333 1.0 6.0 0.00 0.00 0.00 26 1019.1
20260502013504 60 325 1.0 6.0 0.00 0.00 0.00 25 1019.1
20260502013008 60 277 2.0 6.0 0.00 0.00 0.00 25 1019.1
20260502012507 60 360 2.0 6.0 0.00 0.00 0.00 27 1019.1
20260502012007 60 328 2.0 6.0 0.00 0.00 0.00 26 1019.1
20260502011510 60 343 1.0 5.0 0.00 0.00 0.00 26 1019.1
20260502011005 60 332 2.0 6.0 0.00 0.00 0.00 26 1019.1
20260502010505 61 303 1.0 10.0 0.00 0.00 0.00 28 1019.1
20260502010010 61 15 3.0 10.0 0.00 0.00 0.00 27 1019.1
20260502005508 61 343 2.0 6.0 0.00 0.00 0.00 27 1019.1
20260502005008 61 300 2.0 6.0 0.00 0.00 0.00 27 1019.1
20260502004515 61 316 1.0 8.0 0.00 0.00 0.00 27 1019.1
20260502004008 61 302 1.0 8.0 0.00 0.00 0.00 27 1019.1
20260502003507 62 292 2.0 6.0 0.00 0.00 0.00 27 1019.1
20260502003014 62 314 1.0 8.0 0.00 0.00 0.00 27 1019.1
20260502002503 62 352 2.0 8.0 0.00 0.00 0.00 27 1019.2
20260502002007 63 324 1.0 8.0 0.00 0.00 0.00 28 1019.1
20260502001516 63 298 2.0 8.0 0.00 0.00 0.00 27 1019.2
20260502001004 62 281 1.0 6.0 0.00 0.00 0.00 28 1019.3
20260502000505 62 352 2.0 6.0 0.00 0.00 0.00 27 1019.3
20260502000036 63 346 1.0 7.0 0.00 0.00 0.00 28 1019.3
20260501235506 63 304 2.0 8.0 0.00 0.00 0.00 27 1019.3
20260501235002 63 311 1.0 8.0 0.00 0.00 0.00 28 1019.3
20260501234515 63 326 2.0 8.0 0.00 0.00 0.00 28 1019.3
20260501234007 63 342 1.0 7.0 0.00 0.00 0.00 28 1019.3
20260501233506 63 352 2.0 7.0 0.00 0.00 0.00 27 1019.4
20260501233010 64 288 2.0 8.0 0.00 0.00 0.00 28 1019.3
20260501232509 64 327 2.0 9.0 0.00 0.00 0.00 28 1019.3
20260501232011 64 351 3.0 9.0 0.00 0.00 0.00 25 1019.3
20260501231517 64 333 2.0 8.0 0.00 0.00 0.00 26 1019.3
20260501231004 64 352 2.0 8.0 0.00 0.00 0.00 26 1019.3
20260501230510 64 333 2.0 8.0 0.00 0.00 0.00 26 1019.3
20260501230014 64 342 2.0 6.0 0.00 0.00 0.00 25 1019.4
20260501225505 64 345 2.0 10.0 0.00 0.00 0.00 28 1019.5
20260501225009 63 320 2.0 10.0 0.00 0.00 0.00 25 1019.5
20260501224517 63 340 2.0 10.0 0.00 0.00 0.00 27 1019.6
20260501224006 64 310 2.0 9.0 0.00 0.00 0.00 26 1019.6
20260501223508 64 325 2.0 9.0 0.00 0.00 0.00 28 1019.6
20260501223018 64 288 2.0 5.0 0.00 0.00 0.00 27 1019.6
20260501222508 64 302 2.0 5.0 0.00 0.00 0.00 26 1019.7
20260501222007 64 13 1.0 5.0 0.00 0.00 0.00 25 1019.7
20260501221521 64 320 2.0 6.0 0.00 0.00 0.00 27 1019.7
20260501221008 64 296 2.0 8.0 0.00 0.00 0.00 25 1019.8
20260501220508 64 296 1.0 8.0 0.00 0.00 0.00 27 1019.9
20260501220013 64 280 2.0 5.0 0.00 0.00 0.00 26 1019.9
20260501215505 64 302 2.0 11.0 0.00 0.00 0.00 30 1019.9
20260501215009 63 288 3.0 11.0 0.00 0.00 0.00 26 1019.9
20260501214515 64 285 3.0 6.0 0.00 0.00 0.00 25 1020.0
20260501214009 63 14 2.0 8.0 0.00 0.00 0.00 26 1020.1
20260501213509 63 336 2.0 8.0 0.00 0.00 0.00 26 1020.1
20260501213016 63 263 2.0 6.0 0.00 0.00 0.00 25 1020.0
20260501212506 63 5 1.0 5.0 0.00 0.00 0.00 26 1020.1
20260501212008 63 316 2.0 5.0 0.00 0.00 0.00 25 1020.1
20260501211520 63 300 2.0 9.0 0.00 0.00 0.00 26 1020.1
20260501211006 63 311 2.0 9.0 0.00 0.00 0.00 28 1020.2
20260501210507 63 313 1.0 8.0 0.00 0.00 0.00 29 1020.2
20260501210021 63 352 2.0 8.0 0.00 0.00 0.00 26 1020.2
20260501205510 63 350 2.0 9.0 0.00 0.00 0.00 26 1020.4
20260501205006 63 317 2.0 9.0 0.00 0.00 0.00 28 1020.4
20260501204514 63 313 2.0 6.0 0.00 0.00 0.00 30 1020.3
20260501204008 63 313 1.0 6.0 0.00 0.00 0.00 26 1020.3
20260501203506 63 299 2.0 6.0 0.00 0.00 0.00 26 1020.3
20260501203018 63 275 2.0 5.0 0.00 0.00 0.00 31 1020.3
20260501202507 62 316 2.0 8.0 0.00 0.00 0.00 29 1020.3
20260501202009 62 307 3.0 8.0 0.00 0.00 0.00 28 1020.3
20260501201517 62 290 2.0 8.0 0.00 0.00 0.00 31 1020.3
20260501201008 62 344 3.0 6.0 0.00 0.00 0.00 27 1020.3
20260501200508 62 5 2.0 5.0 0.00 0.00 0.00 28 1020.4
20260501200015 62 331 1.0 5.0 0.00 0.00 0.00 27 1020.4
20260501195507 64 352 2.0 6.0 0.00 0.00 0.00 26 1020.4
20260501195007 63 352 1.0 6.0 0.00 0.00 0.00 28 1020.4
20260501194529 62 217 2.0 8.0 0.00 0.00 0.00 26 1020.4
20260501194006 62 273 1.0 8.0 0.00 0.00 0.00 29 1020.5
20260501193507 61 281 1.0 3.0 0.00 0.00 0.00 29 1020.5
20260501193020 61 267 1.0 6.0 0.00 0.00 0.00 27 1020.6
20260501192506 61 317 0.0 6.0 0.00 0.00 0.00 30 1020.7
20260501192007 60 44 1.0 5.0 0.00 0.00 0.00 28 1020.7
20260501191518 61 24 1.0 5.0 0.00 0.00 0.00 29 1020.7
20260501191007 60 329 1.0 8.0 0.00 0.00 0.00 30 1020.8
20260501190507 61 55 2.0 8.0 0.00 0.00 0.00 29 1020.9
20260501190021 60 45 2.0 5.0 0.00 0.00 0.00 32 1020.8
20260501185509 61 326 1.0 4.0 0.00 0.00 0.00 29 1020.9
20260501185010 60 41 1.0 4.0 0.00 0.00 0.00 30 1020.9
20260501184520 59 291 1.0 2.0 0.00 0.00 0.00 30 1020.9
20260501184011 59 233 0.0 4.0 0.00 0.00 0.00 26 1021.0
20260501183511 60 309 2.0 6.0 0.00 0.00 0.00 29 1021.1
20260501183014 60 346 1.0 5.0 0.00 0.00 0.00 29 1021.2
20260501182507 60 82 0.0 2.0 0.00 0.00 0.00 28 1021.1
20260501182009 59 311 0.0 4.0 0.00 0.00 0.00 30 1021.2
20260501181520 59 49 1.0 4.0 0.00 0.00 0.00 30 1021.2
20260501181006 59 360 1.0 3.0 0.00 0.00 0.00 30 1021.1
20260501180507 59 109 0.0 4.0 0.00 0.00 0.00 29 1021.3
20260501180031 59 344 0.0 4.0 0.00 0.00 0.00 29 1021.3
20260501175510 58 345 0.0 4.0 0.00 0.00 0.00 30 1021.3
20260501175011 57 338 1.0 3.0 0.00 0.00 0.00 31 1021.3
20260501174529 58 311 1.0 3.0 0.00 0.00 0.00 31 1021.4
20260501174008 58 352 1.0 3.0 0.00 0.00 0.00 30 1021.4
20260501173507 58 78 1.0 5.0 0.00 0.00 0.00 30 1021.4
20260501173023 58 11 1.0 5.0 0.00 0.00 0.00 31 1021.4
20260501172508 57 13 1.0 3.0 0.00 0.00 0.00 33 1021.4
20260501172013 57 44 1.0 5.0 0.00 0.00 0.00 29 1021.5
20260501171518 58 321 1.0 5.0 0.00 0.00 0.00 32 1021.5
20260501171012 57 311 0.0 2.0 0.00 0.00 0.00 32 1021.5
20260501170507 57 92 0.0 2.0 0.00 0.00 0.00 32 1021.6
20260501170019 57 72 1.0 3.0 0.00 0.00 0.00 30 1021.7
20260501165508 57 149 2.0 3.0 0.00 0.00 0.00 30 1021.7
20260501165008 56 351 0.0 3.0 0.00 0.00 0.00 33 1021.6
20260501164515 56 321 2.0 3.0 0.00 0.00 0.00 31 1021.6
20260501164012 56 89 0.0 2.0 0.00 0.00 0.00 32 1021.7
20260501163509 56 277 0.0 2.0 0.00 0.00 0.00 34 1021.6
20260501163032 55 249 0.0 2.0 0.00 0.00 0.00 33 1021.6
20260501162510 55 144 0.0 2.0 0.00 0.00 0.00 32 1021.5
20260501162010 55 146 1.0 2.0 0.00 0.00 0.00 33 1021.5
20260501161525 54 30 0.0 2.0 0.00 0.00 0.00 34 1021.5
20260501161008 54 74 0.0 3.0 0.00 0.00 0.00 34 1021.4
20260501160507 53 329 1.0 3.0 0.00 0.00 0.00 36 1021.4